Location: Tamazert
(32.6352°N, 5.2072°W)
Time: 08:22:02
(UTC+00:00)

Tiros 1 despin weight - Pass Details

Date: 10 October 2022
Orbit: 590 x 637 km, 48.2° (Epoch: 28 November)

Event Time Altitude Azimuth Distance (km) Brightness Sun altitude
Rises 16:58:34 0° 315° (NW) 2,850 ? 10.6°
Reaches altitude 10° 17:02:17 10° 347° (NNW) 1,959 ? 9.9°
Maximum altitude 17:04:05 12° 11° (N) 1,825 ? 9.5°
Drops below altitude 10° 17:05:55 10° 34° (NE) 1,971 ? 9.1°
Sets 17:09:40 0° 66° (ENE) 2,889 ? 8.4°
